Dewpoint
71 68 71 69 72 72 71 69 59 56 55 52 53 54 51 58 58 57 57 57 56 58 58 55 56 55 55 53 53 55 56 51 53 49 48 62 68 69 71 72 71 71 72 72 74 74 75 76 76 76 75 75 75 75 74 74 74 74 73 73 74 73 73 73 74 75 75 74 75 75 75 75 75 75 75 75 75 75 76 76 76 76 76 76 76 76 76 76 76 75 75 74 74 75 75 75 75
70 70 67 71 71 71 64 67 58 54 54 51 52 55 54 57 58 55 54 57 57 57 56 56 54 56 61 59 56 56 56 61 61 56 64 67 68 68 69 72 71 71 72 73 73 74 74 75 76 76 75 75 75 74 74 74 74 73 73 73 73 74 74 74 75 76 75 75 75 75 75 75 75 75 75 75 75 75 76 76 75 76 76 75 76 76 76 76 76 75 74 74 74 74 75 76 76
68 69 67 69 71 70 67 66 54 54 49 48 51 53 57 54 54 56 58 58 60 58 55 55 55 57 56 56 53 57 53 62 63 63 64 67 66 68 70 72 72 71 72 73 73 73 74 75 76 76 75 75 75 74 74 74 74 73 73 73 74 74 73 74 75 76 76 75 76 76 76 75 75 75 75 75 75 75 75 75 75 75 75 75 75 76 76 76 75 75 74 73 74 75 75 76 75
68 68 67 68 65 69 62 60 55 52 49 50 51 54 56 55 55 59 60 61 57 55 55 54 55 60 57 53 57 58 59 60 63 63 64 65 66 69 70 71 73 72 72 72 73 73 74 75 76 75 75 74 74 74 74 74 74 73 74 74 74 74 74 75 75 76 75 75 75 76 75 75 75 75 75 75 76 76 75 76 76 75 75 76 76 76 75 76 75 75 75 75 74 75 75 75 75
68 68 67 68 66 62 62 58 55 53 48 51 48 54 56 57 58 59 60 59 55 54 54 55 57 60 62 61 61 57 58 63 63 65 64 66 68 70 71 71 72 72 72 72 72 73 74 75 76 75 75 74 73 73 74 74 73 73 74 74 74 74 75 76 76 75 75 75 75 75 75 75 75 75 75 75 75 74 74 76 76 75 75 76 76 76 76 75 76 76 75 75 75 75 76 75 75
66 67 71 70 65 67 60 54 52 51 54 55 51 54 56 58 59 59 59 57 55 54 55 56 56 56 57 60 61 58 59 56 62 64 65 66 68 70 71 72 71 71 71 72 73 74 74 76 75 75 74 74 74 74 73 73 72 74 72 74 74 75 75 75 75 75 75 76 76 75 76 75 76 76 76 76 75 75 74 74 76 76 75 76 76 76 75 75 75 75 75 75 75 75 75 75 75
65 68 69 69 68 65 57 53 53 55 56 59 54 56 57 58 59 58 58 56 57 59 60 58 57 56 55 59 60 63 65 63 62 64 67 68 69 71 71 71 71 71 72 73 73 74 74 76 74 74 74 74 74 74 73 73 74 74 75 75 76 76 76 76 76 75 75 75 75 76 75 76 76 76 76 76 75 75 75 75 75 75 75 76 76 76 75 75 75 76 75 75 75 75 75 75 75
70 66 66 61 61 60 56 56 56 57 55 62 61 56 58 59 59 58 56 55 55 55 58 57 57 59 58 61 58 64 66 66 65 67 68 69 70 70 70 71 70 71 71 73 74 74 75 76 76 75 75 75 75 75 75 75 75 75 75 75 76 76 75 75 75 76 76 75 75 75 75 75 75 75 76 75 75 74 74 75 75 76 76 75 75 75 75 75 75 75 75 75 75 74 74 74 74
69 67 69 63 59 60 56 55 56 61 60 62 61 66 61 60 59 58 57 59 58 59 56 56 56 53 58 59 60 64 65 67 67 69 69 69 70 70 70 70 69 70 71 71 72 73 74 76 76 76 75 75 75 75 75 75 75 75 74 75 75 75 75 75 75 75 76 75 75 75 75 75 75 75 75 75 74 74 75 76 76 75 75 75 75 75 75 75 76 75 75 75 75 74 75 75 75
66 66 62 60 60 55 56 55 54 57 59 63 61 62 59 60 58 60 57 57 58 58 58 59 57 58 59 58 60 63 64 67 68 68 69 69 69 70 70 70 70 70 70 71 72 73 74 76 75 75 75 75 74 74 74 75 75 75 75 75 75 75 75 75 75 75 75 75 75 75 75 75 75 75 75 75 74 75 75 75 75 75 75 75 75 75 75 75 75 75 75 75 75 75 75 75 75
63 66 66 58 55 54 54 54 57 59 60 63 62 65 62 62 58 58 59 60 61 58 58 58 58 57 58 60 62 66 67 67 66 66 69 69 70 70 69 71 70 70 70 71 73 73 74 75 75 75 74 74 74 74 73 73 74 74 74 74 75 75 75 75 75 75 74 74 74 74 75 75 75 75 75 75 74 74 75 74 75 75 75 75 75 74 75 74 75 75 75 75 75 75 74 74 74
61 62 62 58 56 55 54 54 57 58 60 60 59 64 65 60 60 58 59 58 60 57 56 57 57 58 58 59 61 66 66 66 67 68 68 69 69 69 70 70 70 71 71 72 73 72 74 75 74 75 73 72 72 72 73 73 73 73 74 74 75 75 74 74 74 75 75 74 73 74 73 73 75 75 75 74 75 74 75 75 75 75 75 75 75 75 75 75 75 75 75 75 75 75 75 74 75
62 63 60 58 56 56 56 57 56 58 58 58 58 65 65 59 58 60 60 60 58 56 55 59 58 58 55 59 64 65 64 66 67 68 68 68 69 70 70 70 71 72 72 73 73 73 73 74 73 73 72 72 72 72 72 72 73 73 74 74 74 74 74 74 74 73 73 73 72 73 73 74 74 74 74 75 74 74 75 74 74 75 75 75 74 74 75 75 75 75 75 75 74 74 74 74 74
62 62 61 57 59 57 56 57 60 54 55 60 64 65 62 58 60 61 59 58 59 58 59 59 59 62 60 60 63 62 63 66 67 67 68 69 70 70 70 70 71 71 72 73 72 73 73 73 72 72 72 72 73 72 72 73 74 74 74 74 74 74 74 74 73 73 73 73 73 72 72 74 74 74 74 74 74 74 75 75 75 75 75 75 75 75 75 75 75 75 75 75 74 74 74 74 74
63 66 60 59 57 57 59 54 55 54 54 61 65 62 60 63 61 62 61 57 59 63 61 60 59 53 53 56 59 60 64 66 66 68 69 70 70 70 70 70 70 71 71 71 72 72 73 73 72 72 72 72 71 73 73 74 74 74 74 74 74 74 73 74 73 73 73 73 73 73 73 74 74 74 74 74 74 74 75 75 75 75 75 74 75 75 75 75 75 75 75 75 75 75 74 74 74
65 61 59 58 56 57 57 57 60 55 56 62 65 62 61 61 62 60 60 63 59 60 58 55 59 58 56 57 57 62 65 66 67 68 69 69 70 70 70 70 70 70 71 71 71 72 73 73 73 73 72 72 71 72 72 73 73 73 73 74 74 73 73 72 74 74 73 73 74 74 73 74 74 74 74 74 75 75 75 74 75 75 74 75 75 75 75 75 75 75 75 75 74 74 74 75 75
66 63 58 57 55 56 57 56 57 51 60 63 64 59 58 59 62 63 64 63 59 59 62 60 59 61 57 60 63 64 65 67 68 68 69 69 70 69 70 70 69 70 70 71 72 73 74 74 74 72 73 73 72 72 72 73 73 74 74 73 73 73 73 73 73 73 73 73 73 74 73 75 76 76 76 74 75 75 75 75 74 74 74 75 75 75 75 75 75 75 75 74 75 76 74 73 73
64 60 58 56 56 56 58 57 58 61 60 62 61 59 59 58 61 62 63 62 62 61 61 60 61 62 62 64 65 65 66 67 67 67 66 67 68 67 67 68 68 68 69 70 72 72 73 74 73 73 73 73 72 72 72 73 74 74 74 75 75 74 72 72 73 74 73 74 73 75 76 76 76 76 75 74 73 74 74 75 75 74 75 74 75 75 75 75 75 75 75 76 75 74 73 71 71
60 59 58 53 57 57 61 61 61 60 60 63 61 62 60 59 61 61 60 60 60 60 61 60 61 62 63 64 65 66 66 66 66 66 66 66 66 65 66 67 67 68 68 70 71 71 73 74 74 72 73 74 73 72 72 73 73 74 73 74 74 74 74 74 74 74 74 74 74 75 76 75 76 77 77 75 75 74 74 74 74 74 74 74 75 75 75 76 76 75 75 74 74 73 71 71 70
61 58 56 56 58 59 61 63 63 65 65 63 61 61 61 62 61 62 60 58 60 58 58 58 59 61 62 63 65 65 66 66 67 67 66 66 67 66 66 66 66 68 67 69 70 71 73 73 73 73 73 73 73 73 72 73 73 73 72 74 74 74 74 74 74 75 74 74 74 75 76 76 75 76 74 74 74 75 74 74 74 74 74 75 76 75 75 75 74 73 73 73 70 70 71 69 68
61 58 55 57 62 60 62 65 64 66 66 64 61 63 62 63 62 61 60 58 59 61 58 57 59 61 62 63 64 65 65 66 66 66 66 67 67 66 66 67 67 67 68 70 71 71 72 72 73 73 74 73 73 73 72 73 73 73 73 74 73 74 74 74 73 73 74 74 74 74 75 75 74 76 76 76 75 76 76 74 74 74 75 76 74 74 73 74 71 71 71 71 71 70 69 70 69
60 58 62 61 63 59 65 66 66 66 66 64 63 60 61 65 62 61 59 56 55 58 61 60 61 62 62 62 64 65 65 65 66 66 66 66 66 67 67 67 68 68 70 69 70 71 71 71 72 73 73 73 74 73 72 73 72 72 72 73 72 72 72 72 73 73 74 73 74 74 75 74 74 75 75 75 76 76 74 73 74 74 75 75 74 72 72 73 72 71 72 70 69 69 68 70 69
52 60 62 63 64 63 66 66 65 66 65 64 62 64 64 62 61 62 59 60 61 62 60 61 61 62 62 63 64 64 65 65 66 66 66 66 66 66 67 67 67 67 69 69 71 71 71 71 72 72 72 73 73 73 73 72 72 72 72 72 72 71 72 72 72 73 73 74 74 74 73 73 73 73 74 75 75 75 73 73 73 74 74 73 74 71 72 73 72 72 72 72 71 68 67 70 71
53 54 62 63 64 63 65 65 66 64 65 64 65 66 64 61 58 62 60 61 62 62 62 62 62 63 63 63 64 64 65 65 66 66 66 66 66 67 67 67 67 69 69 69 69 71 71 71 72 72 73 73 73 73 73 72 73 72 71 73 72 72 72 71 72 73 73 74 74 74 74 73 72 73 74 75 74 74 73 74 74 73 72 72 74 73 71 71 72 73 73 72 71 71 69 70 70
55 55 63 63 63 64 64 64 64 65 65 66 65 64 64 65 62 61 60 61 61 62 61 62 63 63 62 63 64 65 66 66 65 66 67 67 67 67 68 68 68 68 68 69 70 70 71 71 71 72 72 72 73 72 72 72 72 72 72 71 72 73 72 72 72 73 73 73 74 74 74 73 72 72 73 74 74 74 74 74 72 71 72 72 73 71 73 73 72 71 73 72 73 73 72 70 72
57 60 64 62 61 64 64 64 65 65 65 66 63 63 64 64 64 60 61 62 61 60 61 62 62 62 62 63 64 65 65 65 65 66 66 67 67 67 68 68 68 68 68 69 70 70 71 71 70 71 71 72 72 72 72 72 72 72 72 72 72 73 72 72 72 72 73 73 74 75 74 73 72 71 73 74 73 73 74 73 73 71 71 72 72 72 73 73 71 72 72 73 71 73 72 73 74
61 62 62 63 63 62 64 64 65 65 65 65 62 62 63 63 63 56 63 62 62 61 61 62 62 61 62 63 64 65 65 65 65 66 66 67 67 67 68 68 68 68 69 69 69 71 72 71 70 71 73 75 73 71 72 72 72 72 72 72 72 72 73 73 73 72 72 73 74 75 75 75 72 72 73 74 73 73 73 73 71 72 70 71 73 72 72 73 73 73 73 73 74 74 74 73 74
62 62 62 63 63 63 64 64 64 64 64 65 63 62 64 64 61 58 62 62 61 59 60 61 61 62 62 63 64 65 65 65 66 66 66 66 66 67 67 68 68 68 68 68 70 71 71 70 70 71 72 73 74 72 73 71 72 72 72 73 72 73 73 72 72 72 73 73 74 74 74 74 74 73 74 74 74 72 72 72 72 72 71 72 73 72 72 74 74 74 75 76 76 76 75 75 75
62 63 59 62 63 61 63 62 63 64 62 64 64 61 60 60 58 62 62 63 61 59 60 61 61 62 62 63 64 65 65 66 66 66 65 66 66 66 67 68 68 69 69 69 70 70 70 70 71 71 72 74 74 73 72 72 72 72 72 72 72 72 73 72 71 72 73 74 74 74 75 75 75 74 75 75 74 72 72 73 71 72 72 73 73 73 74 75 75 75 75 75 76 75 74 72 72
63 61 61 60 59 58 62 63 64 62 62 64 63 54 58 60 60 62 63 63 61 60 59 60 61 61 62 63 63 64 65 65 65 65 66 66 67 66 67 68 69 69 69 70 69 69 70 70 71 71 71 72 73 72 72 72 72 72 72 72 73 72 71 72 72 72 74 74 74 75 74 75 75 75 75 75 74 72 73 73 72 72 73 74 74 75 73 73 74 74 72 73 73 73 70 71 71
58 58 57 54 54 55 61 64 62 60 63 64 64 53 56 60 60 63 63 63 61 59 59 60 60 61 62 62 63 63 64 65 64 64 65 66 66 67 67 68 69 69 70 69 69 69 70 70 70 70 72 71 72 73 72 72 72 72 72 72 72 72 72 71 71 72 73 73 73 73 75 75 75 75 75 75 73 74 71 71 72 71 73 75 73 74 74 75 74 73 72 72 72 70 69 72 72
56 53 52 55 50 55 61 64 63 59 61 64 62 52 54 58 58 62 62 62 61 59 59 59 60 60 61 62 62 62 62 63 64 64 64 65 66 67 67 68 69 69 70 70 70 69 69 70 71 70 71 71 72 72 72 73 72 73 72 73 72 73 71 71 71 71 72 72 73 74 75 76 75 76 75 75 74 73 72 70 71 74 75 74 74 75 77 74 74 74 73 73 72 69 71 69 72
56 53 51 52 52 54 57 61 63 64 62 62 63 56 57 57 59 62 62 63 62 60 60 60 59 60 60 61 61 61 61 62 63 63 64 65 66 66 67 68 69 70 69 70 70 70 70 70 71 70 70 70 71 71 73 73 73 73 73 72 71 73 70 70 71 72 72 72 72 72 75 75 76 76 76 76 74 73 71 71 70 72 74 74 75 75 74 74 74 69 75 76 75 75 69 67 68
53 52 51 54 51 52 52 59 62 63 61 59 61 58 58 58 60 61 62 62 62 60 60 60 60 60 61 61 60 60 61 61 61 63 62 64 65 67 67 69 69 70 70 70 70 70 70 70 70 70 71 70 71 72 72 72 73 73 73 72 74 71 70 69 70 71 72 72 73 73 75 75 76 76 76 76 75 73 73 72 71 74 74 75 76 74 74 74 75 74 74 76 76 75 71 70 68
45 51 49 51 54 54 54 54 60 61 61 60 60 58 57 58 60 59 60 62 61 59 60 59 59 60 60 60 60 60 60 61 60 62 62 63 64 66 67 69 69 69 70 70 71 71 71 72 72 72 72 72 72 73 73 72 73 73 72 72 72 73 73 71 71 71 71 72 71 74 76 75 75 76 76 76 76 74 73 73 73 75 75 75 76 74 73 74 75 75 74 74 78 76 74 73 73
46 51 50 51 49 51 53 59 62 60 59 60 58 57 57 58 58 58 59 61 60 59 60 60 60 59 60 60 60 60 60 60 61 62 62 62 64 65 67 68 69 69 69 70 72 72 72 73 73 73 73 71 73 72 72 72 71 71 71 72 71 72 72 72 72 71 71 71 71 73 75 75 75 76 77 76 77 76 74 73 74 75 75 76 74 72 72 72 75 75 75 74 75 75 75 74 74
50 52 51 51 50 53 57 59 62 63 60 58 58 57 56 57 58 58 57 59 59 59 59 60 60 60 60 59 59 60 60 59 60 61 61 62 63 65 67 68 69 69 70 71 71 71 72 72 73 72 73 73 72 72 71 70 69 71 71 69 69 70 72 72 71 71 71 70 73 73 75 73 75 76 76 76 76 77 76 76 76 76 75 75 74 73 73 74 77 76 76 78 73 73 71 71 73
39 43 46 48 49 41 53 57 61 62 58 58 58 57 58 59 59 59 58 58 57 58 58 59 59 59 59 60 60 60 60 60 60 61 61 62 63 65 67 68 69 69 70 70 70 71 71 71 72 72 72 72 71 71 71 70 71 70 70 69 69 70 72 71 71 72 70 70 75 75 75 74 76 76 77 78 78 77 77 75 76 76 76 75 76 77 77 77 77 75 75 74 75 72 71 70 72
21 23 25 23 27 42 58 60 60 62 59 57 58 57 58 59 59 59 59 58 57 58 58 59 59 60 60 60 60 60 60 60 59 59 60 61 63 65 66 67 68 68 69 69 70 71 71 72 72 73 72 72 72 72 72 72 72 73 71 71 70 70 71 71 70 70 72 71 72 74 75 76 76 76 77 78 77 77 76 76 75 76 76 76 76 75 76 75 76 74 75 74 71 73 72 72 75
16 21 19 21 40 35 36 59 59 61 59 57 57 56 58 59 59 59 60 61 60 61 61 61 61 60 60 59 60 60 59 60 60 59 58 60 63 65 66 67 68 68 69 69 69 70 70 72 73 73 73 72 72 72 73 72 73 74 73 73 72 70 70 72 73 73 73 72 71 73 75 76 75 74 75 75 75 76 76 75 75 74 77 77 76 75 75 74 75 74 73 74 75 68 66 69 72
17 16 19 22 44 40 34 52 58 59 58 58 56 55 55 57 56 57 59 61 62 62 62 61 60 61 60 61 60 60 59 60 60 58 59 59 62 64 66 67 67 67 68 69 69 69 69 71 72 73 73 72 73 73 73 73 74 74 73 73 73 72 71 71 71 70 71 72 71 72 72 75 75 74 74 75 75 76 77 77 76 75 76 77 75 74 74 72 74 74 75 75 74 72 67 69 71
12 19 18 19 31 39 55 56 55 53 54 56 54 49 51 57 55 55 57 59 59 61 61 60 60 59 60 59 59 60 60 60 60 59 58 59 61 64 66 67 67 67 67 68 68 69 69 71 72 73 73 72 72 73 74 73 73 73 72 71 70 70 70 69 69 69 69 70 69 70 72 72 73 73 74 75 75 76 77 77 77 75 75 76 76 73 74 74 74 73 75 74 73 75 74 70 67
12 17 19 21 28 38 52 53 47 46 43 52 55 45 43 55 54 55 57 58 58 60 60 60 60 61 59 58 58 58 58 58 59 59 58 58 60 63 65 66 66 66 67 68 68 69 70 71 72 72 72 72 72 73 74 73 73 73 73 71 70 70 69 69 71 70 69 70 71 72 72 73 74 72 72 74 75 76 77 77 77 76 75 75 76 75 73 72 72 72 75 75 74 76 76 73 71
12 14 26 24 28 47 51 49 44 48 53 55 55 52 47 47 50 56 57 57 58 58 59 60 60 61 60 58 57 58 57 57 58 59 59 58 61 62 64 65 65 65 66 67 68 69 70 72 72 72 73 72 72 73 74 74 73 73 73 72 71 71 68 70 72 72 71 73 72 71 72 72 74 74 72 76 76 76 76 76 77 76 75 74 75 74 73 73 74 75 76 77 78 77 76 74 72
28 43 36 32 43 53 53 50 50 50 48 50 53 53 50 47 52 56 57 56 57 57 58 59 60 61 61 60 57 58 58 59 58 57 57 58 60 61 63 64 65 65 66 67 68 69 70 71 72 72 72 73 72 73 74 74 74 74 73 72 72 72 71 70 72 72 72 73 72 73 74 72 74 75 74 73 75 75 76 76 77 76 75 75 75 73 74 73 74 75 75 76 75 76 76 76 76
51 50 51 51 52 51 50 50 50 51 47 41 50 52 47 44 51 54 57 56 56 56 57 58 59 61 62 62 60 58 58 59 58 57 58 58 60 61 62 63 64 64 66 67 67 68 69 71 72 72 72 72 72 73 74 74 74 74 73 73 72 73 72 73 72 72 74 74 73 74 74 74 72 73 73 75 75 75 75 77 75 75 75 73 74 74 74 75 75 75 75 73 76 75 76 75 75
51 50 49 47 47 48 50 52 52 51 43 44 49 51 48 43 49 52 55 56 56 56 57 58 60 61 61 63 62 59 57 57 57 57 57 58 59 61 62 63 64 64 66 66 67 68 68 69 71 72 72 72 73 73 74 74 74 74 73 73 73 72 72 72 72 72 73 74 73 72 73 74 73 72 71 73 74 73 75 76 74 74 74 75 75 74 74 72 72 73 73 75 76 76 74 75 74
49 48 48 46 47 52 50 49 51 44 34 42 48 50 50 44 45 53 54 55 55 56 56 56 58 59 61 62 63 61 58 57 58 58 58 58 60 61 62 63 64 65 65 66 66 67 68 69 70 72 73 73 73 73 74 73 73 74 73 73 73 73 73 71 72 71 72 72 72 72 73 74 74 73 73 71 72 71 74 75 75 75 76 75 75 75 74 73 73 73 74 75 75 76 76 75 73
38 47 38 21 44 46 40 48 33 35 37 45 49 51 51 48 48 55 57 57 58 59 60 58 56 58 60 62 63 63 59 57 58 59 58 58 60 61 62 63 65 66 66 66 65 66 68 69 70 72 73 73 73 73 73 74 73 73 73 73 73 73 73 73 72 72 72 72 72 72 74 74 74 74 72 71 70 72 74 75 75 75 76 76 76 76 76 76 77 74 75 74 74 75 75 75 73
33 40 38 27 30 38 34 37 38 39 39 38 44 52 45 48 50 57 58 59 59 59 61 61 59 57 60 61 63 63 61 59 59 58 57 59 60 61 63 64 65 65 65 65 65 67 68 68 70 70 72 73 73 73 73 74 74 74 74 73 73 73 74 73 72 71 71 72 73 73 71 70 73 72 70 72 71 70 71 73 75 75 77 77 78 78 77 77 77 76 75 75 73 75 76 76 75
29 35 31 25 23 18 25 35 31 35 37 44 52 47 45 43 48 57 58 59 60 60 61 61 60 58 59 60 62 63 63 61 60 58 57 58 61 62 63 65 65 64 64 64 65 67 69 69 70 71 72 72 73 73 73 74 73 74 74 73 73 73 72 72 71 71 71 71 70 70 73 71 70 71 72 73 74 74 74 74 75 75 76 77 78 77 75 76 78 77 77 76 76 74 75 75 74
25 32 35 31 27 33 18 35 33 31 40 41 49 45 47 46 57 56 58 58 59 60 61 60 58 58 59 61 62 62 63 62 59 57 57 58 61 63 63 64 64 64 66 65 65 67 68 69 71 71 71 72 72 73 73 73 73 73 75 74 73 74 74 72 73 74 73 71 72 72 73 74 72 73 74 74 73 74 74 74 75 74 76 75 77 77 77 75 76 76 77 76 76 73 75 75 74
27 31 30 31 37 35 41 38 33 31 29 27 49 47 48 50 52 55 57 58 59 60 60 59 57 57 59 60 62 63 64 63 61 58 56 58 59 62 63 64 63 64 65 65 67 68 68 69 70 71 71 71 71 73 72 73 74 74 74 74 73 73 72 72 71 71 69 71 72 73 71 71 72 74 72 73 73 75 75 74 73 71 75 77 77 77 76 76 77 76 75 77 75 74 76 76 74
23 26 26 29 32 36 39 34 41 33 29 27 42 38 43 43 40 56 56 57 58 59 61 60 61 58 58 59 61 63 64 66 65 61 59 58 59 61 62 63 63 64 64 65 68 67 69 69 69 70 70 71 70 71 71 72 73 73 74 73 74 73 71 70 70 71 71 72 73 73 72 72 72 71 72 70 73 74 75 76 75 75 74 75 75 74 75 75 77 76 76 77 75 76 76 75 75
25 23 25 21 29 32 38 37 35 30 28 30 29 41 45 48 50 55 55 57 58 59 61 61 61 62 59 59 60 63 65 66 66 64 60 57 59 61 63 63 65 67 67 66 67 67 67 68 68 67 69 69 69 68 70 71 72 71 71 72 72 72 72 71 71 73 73 72 70 71 71 72 71 72 74 75 75 72 74 74 76 74 75 76 76 75 76 76 77 76 75 75 75 77 76 75 76
33 33 36 35 26 34 34 34 41 34 35 31 28 38 40 51 53 55 57 59 59 60 60 61 61 62 62 62 61 61 64 66 66 65 64 61 61 62 63 64 66 67 67 66 67 66 66 67 68 68 69 70 69 69 70 71 70 71 70 72 73 74 74 72 73 73 72 71 71 70 71 70 72 72 72 73 73 73 73 72 71 71 71 73 73 73 73 75 76 76 74 73 74 77 76 75 74
33 34 37 37 33 29 25 31 32 33 34 33 30 26 44 53 57 57 58 59 60 60 60 61 62 62 63 63 63 63 63 66 67 67 66 64 64 61 63 65 67 68 67 67 67 68 68 69 69 69 71 71 70 69 69 71 71 71 72 72 71 72 72 72 72 72 72 72 72 72 71 71 72 72 73 72 73 74 74 73 71 72 71 73 75 74 74 75 77 77 76 76 76 77 76 75 75
37 37 37 38 36 25 24 28 24 28 31 32 33 26 47 53 57 58 59 60 60 60 60 61 61 62 62 64 64 65 65 65 66 68 68 67 68 64 63 65 66 67 66 67 68 70 70 71 70 70 71 71 71 69 71 72 71 71 71 71 70 71 72 72 71 71 72 71 71 72 72 73 72 73 73 73 73 72 73 73 72 73 74 73 75 77 74 74 75 76 75 73 74 77 77 76 76